Погода в Шаровичах

Россия / Брянская область     53°57′47″N   33°44′41″E
темп.,
°C
ветер,
м/с
пор.,
м/с
влажн.,
%
обл.,
%
осадки,
мм/ч
давл.,
гПа
погр.,
м
12 апреля, пн
пн1200:00+6вюв22760 0.0 103021
03:00+5вюв2379100 0.0 103146
06:00+4в3778100 0.0 1030110
09:00+9в41261100 0.0 1029543
12:00+11в5949100 0.0 1027813
15:00+12вюв3669100 0.3 1025654
18:00+12в4774100 0.0 1024585
21:00+9всв3792100 0.0 1025139
13 апреля, вт
вт1300:00+8всв2395100 0.0 102358
03:00+8вюв2294100 0.0 102235
06:00+7юв2293100 0.0 102234
09:00+12ююв3776100 0.0 1022243
12:00+18юв465074 0.0 1021980
15:00+19юв584662 0.0 10211755
18:00+17юв5105182 0.0 1020601
21:00+13ююв2672100 0.0 1020113
14 апреля, ср
ср1400:00+12юв3976100 0.0 1020234
03:00+11юв3977100 0.0 1019336
06:00+10ююв2785100 0.0 1019228
09:00+11ююв278482 0.0 1019357
12:00+15ю486495 0.3 10181208
15:00+16ююв3560100 1.6 1017914
18:00+15ю2473100 1.8 1016182
21:00+11ю2386100 2.9 101777
15 апреля, чт
чт1500:00+10юв2692100 0.8 1016148
03:00+9ююз2295100 0.8 101634
06:00+9ю1194100 0.0 101718
09:00+11ююв2283100 0.0 1017246
12:00+14ююв2364100 0.2 1016850
15:00+15ююв2359100 0.3 10161156
18:00+14юз1171100 0.6 101523
21:00+11сз1179100 1.1 101516
16 апреля, пт
пт1600:00+10ссв3786100 0.0 1014130
03:00+9ссв41287100 0.1 1014310
06:00+9св41188100 0.1 1014349
09:00+11св5982100 0.1 1014381
12:00+12всв5876100 0.1 1015850
15:00+10св61288100 0.8 1016766
18:00+10св71488100 0.5 1017868
21:00+8св7158495 0.8 1019810